Location: lozzo di cadore
(46.4899°N, 12.4508°E)
Time: 14:26:50
(UTC+02:00)

Envisat - Pass Details

Date: 30 April 2025
Orbit: 761 x 763 km, 98.3° (Epoch: 14 May)

Event Time Altitude Azimuth Distance (km) Brightness Sun altitude
Rises 04:08:05 0° 14° (NNE) 3,234 7.3 -16.5°
Reaches altitude 10° 04:10:24 10° 15° (NNE) 2,304 6.4 -16.2°
Maximum altitude 04:15:29 82° 104° (ESE) 774 3.0 -15.6°
Enters shadow 04:19:31 16° 191° (SSW) 1,884 4.6 -15.1°
